Regional Weather Roundup
Issued by NWS Portland, ME

Current Version | Previous Version | Text Only | Print | Product List | Glossary On
Versions: 1 2 3 4 5 6 7 8 9 10 11 12 13 14 15 16 17 18 19 20 21 22 23 24 25 26 27 28 29 30 31 32 33 34 35 36 37 38 39 40 41 42 43 44 45 46 47 48 49 50
000 ASUS41 KGYX 020205 RWRGYX WEATHER ROUNDUP FOR MAINE AND NEW HAMPSHIRE NATIONAL WEATHER SERVICE GRAY ME 1000 PM EDT MON SEP 01 2014 MEZ002-005-006-010-012-015-018-020-021-024-026-027-029-020300- MAINE CITY SKY/WX TMP DP RH WIND PRES REMARKS PORTLAND CLEAR 71 66 84 SW3 29.93S SANFORD CLEAR 68 63 83 CALM 29.94F BAR HARBOR CLEAR 63 63 100 CALM 29.95R WISCASSET CLEAR 67 65 93 CALM 29.96R ROCKLAND CLOUDY 63 63 100 CALM 29.93S VSB 1/4 FRYEBURG CLEAR 65 64 97 SW3 29.93F LEWISTONAUBURN CLEAR 70 64 83 SE3 29.94R AUGUSTA PTCLDY 71 68 90 CALM 29.95R WATERVILLE CLOUDY 70 68 94 S3 29.90S BANGOR PTCLDY 68 66 93 S3 29.94R GREENVILLE N/A 65 63 93 CALM 29.96S MILLINOCKET CLOUDY 69 67 93 CALM 29.96R HOULTON CLOUDY 65 62 90 VRB3 29.96S PRESQUE ISLE CLOUDY 66 61 82 S9 29.95R FRENCHVILLE CLOUDY 64 61 90 SE10 29.96S CARIBOU CLOUDY 65 61 87 SE7 29.95S $$ NHZ002-005-008-009-011-012-014-020300- NEW HAMPSHIRE CITY SKY/WX TMP DP RH WIND PRES REMARKS PORTSMOUTH CLEAR 72 68 88 CALM 29.92S ROCHESTER CLEAR 71 67 87 CALM 29.93F NASHUA CLEAR 72 69 90 CALM 29.94S MANCHESTER CLEAR 74 68 81 S3 29.92R CONCORD CLEAR 67 66 97 CALM 29.93S LACONIA CLEAR 68 64 88 CALM 29.93S PLYMOUTH FAIR 63 63 100 CALM 29.94S FOG BERLIN NOT AVBL WHITEFIELD CLEAR 63 61 93 CALM 29.96S JAFFREY CLEAR 68 65 90 CALM 29.98S LEBANON CLEAR 65 62 90 CALM 29.93F FOG MT WASHINGTON PTCLDY 54 43 66 W9 N/A $$ VTZ005-007-008-020300- VERMONT CITY SKY/WX TMP DP RH WIND PRES REMARKS ST JOHNSBURY N/A 66 64 93 MISG 29.92S MONTPELIER CLEAR 66 64 93 CALM 29.98S BURLINGTON CLEAR 74 65 73 S5 29.90R $$ MAZ007-012-024-CTZ003-RIZ002-NYZ038-NYZ072-020300- SOUTHERN NEW ENGLAND AND NY CITY SKY/WX TMP DP RH WIND PRES REMARKS BOSTON PTCLDY 76 69 79 SW6 29.93S WORCESTER CLEAR 72 69 90 SW7 29.99S NANTUCKET CLOUDY 69 68 96 SW5 29.98R FOG PROVIDENCE PTCLDY 75 71 87 S6 29.96R HARTFORD PTCLDY 78 70 76 S7 29.93S ALBANY CLEAR 78 69 73 S5 29.92R NEW YORK CITY PTCLDY 83 71 67 SW10 29.94R $$ ANZ081-ANZ082-ANZ150-NHZ014-MEZ023>029-020300- COASTAL MARINE OBSERVATIONS STATION/POSITION TIME TEMP WIND PRES WAVE AIR SEA DIR/SP/G HT/PER (UTC) (F) (DEG/KT/KT) (MB) (FT/S) MATINICUS ROCK 0100 200/ 12/ 12 1013.3R PORTLAND WX BUOY 0150 65 63 170/ 2/ 4 1013.6R 2/ 7 WELLS 0100 69 64 340/ 2/ 2 1012.7R ISLE OF SHOALS 0100 71 170/ 13/ 13 1013.0R JEFFREYS LEDGE 0121 68 N/A 2/ 8 CASHES LEDGE BUO 0150 67 66 1013.5R 2/ 7 $$ .............KEY.............. WCI - WIND CHILL TC - TEMPERATURE IN CELSIUS VSB - VISIBILITY IN MILES HX - HEAT INDEX FAIR- INDICATES FEW OR NO CLOUDS BELOW 12,000 FT, WITH NO SIGNIFICANT WEATHER AND/OR OBSTRUCTIONS TO VISIBILITY.

USA.gov is the U.S. government's official web portal to all federal, state and local government web resources and services.